Location: Boleita
(10.4833°N, 66.8167°W)
Time: 02:26:04
(UTC+00:00)

CZ-4C R/B - Pass Details

Date: 08 November 2025
Orbit: 487 x 1492 km, 63.4° (Epoch: 09 December)

Event Time Altitude Azimuth Distance (km) Brightness Sun altitude
Exits shadow 09:13:51 21° 270° (W) 2,865 4.3 -16.5°
Maximum altitude 09:16:12 23° 249° (WSW) 2,758 4.4 -16.0°
Drops below altitude 10° 09:22:53 10° 202° (SSW) 3,604 5.4 -14.4°
Sets 09:26:39 0° 188° (S) 4,517 6.1 -13.5°
